Location: Newark
(34.1333°N, 7.9667°W)
Time: 02:28:33
(UTC+00:00)

Vanguard 2 Rocket - All Passes

Search period start: 04 December 2021 00:00
Search period end: 14 December 2021 00:00
Orbit: 555 x 3324 km, 32.9° (Epoch: 03 December)

Date Brightness Start Highest point End Pass type
(mag) Time Alt. Az. Time Alt. Az. Time Alt. Az.
04 Dec - 01:17:48 10° W 01:30:25 34° SSW 01:46:55 10° SSE visible
04 Dec - 17:39:06 10° SW 17:43:54 49° SSE 17:51:43 10° E visible
04 Dec - 19:50:41 10° W 19:57:25 84° S 20:09:51 10° E visible
04 Dec - 22:03:08 10° W 22:12:33 70° SSW 22:29:08 10° ESE visible
05 Dec - 00:17:00 10° W 00:28:50 41° SSW 00:46:01 10° SSE visible
05 Dec - 02:36:29 10° WSW 02:45:35 16° SW 02:55:49 10° S visible
05 Dec - 16:40:40 10° SSW 16:44:37 30° SSE 16:50:11 10° E daylight
05 Dec - 18:51:39 10° WSW 18:57:20 78° S 19:07:28 10° E visible
05 Dec - 21:03:47 10° W 21:11:44 77° S 21:26:22 10° ESE visible
05 Dec - 23:16:50 10° W 23:27:25 49° SSW 23:44:24 10° SE night (unlit)
06 Dec - 01:33:14 10° W 01:44:00 23° SW 01:57:25 10° S visible
06 Dec - 15:42:49 10° S 15:45:30 16° SE 15:48:38 10° ESE daylight
06 Dec - 17:52:44 10° WSW 17:57:34 65° SSE 18:05:37 10° E visible
06 Dec - 20:04:36 10° W 20:11:18 82° S 20:23:41 10° E visible
06 Dec - 22:17:07 10° W 22:26:20 58° SSW 22:42:15 10° SE visible
07 Dec - 00:31:43 10° W 00:42:30 30° SSW 00:57:24 10° SSE visible
07 Dec - 16:53:58 10° SW 16:58:08 46° SSE 17:04:17 10° E daylight
07 Dec - 19:05:33 10° W 19:11:12 83° S 19:21:20 10° E visible
07 Dec - 21:17:43 10° W 21:25:35 66° SSW 21:39:49 10° ESE visible
07 Dec - 23:31:11 10° W 23:41:11 37° SSW 23:56:26 10° SSE night (unlit)
08 Dec - 01:50:50 10° WSW 01:57:44 14° SW 02:05:36 10° SSW visible
08 Dec - 15:55:24 10° SSW 15:58:54 28° SSE 16:03:18 10° E daylight
08 Dec - 18:06:34 10° WSW 18:11:23 77° S 18:19:30 10° E visible
08 Dec - 20:18:31 10° W 20:25:11 73° S 20:37:22 10° ESE visible
08 Dec - 22:31:15 10° W 22:40:08 44° SSW 22:54:51 10° SE visible
09 Dec - 00:47:29 10° WSW 00:56:16 20° SSW 01:07:30 10° S visible
09 Dec - 14:57:20 10° S 14:59:44 15° SSE 15:02:19 10° ESE daylight
09 Dec - 17:07:36 10° WSW 17:11:51 63° SSE 17:18:13 10° E daylight
09 Dec - 19:19:27 10° W 19:25:06 79° S 19:35:09 10° E visible
09 Dec - 21:31:43 10° W 21:39:25 52° SSW 21:52:53 10° SE visible
09 Dec - 23:46:07 10° W 23:55:00 26° SSW 00:07:34 10° SSE night (unlit)
10 Dec - 16:08:43 10° SW 16:12:30 44° SSE 16:17:26 10° E daylight
10 Dec - 18:20:27 10° W 18:25:17 81° S 18:33:22 10° E visible
10 Dec - 20:32:28 10° W 20:39:02 60° SSW 20:50:48 10° ESE visible
10 Dec - 22:45:44 10° W 22:53:59 32° SSW 23:06:44 10° SSE visible
11 Dec - 01:06:59 10° SW 01:10:12 11° SW 01:13:41 10° SSW visible
11 Dec - 15:09:54 10° SW 15:13:18 27° SSE 15:17:00 10° E daylight
11 Dec - 17:21:25 10° W 17:25:41 76° S 17:32:06 10° E daylight
11 Dec - 19:33:23 10° W 19:38:58 68° S 19:48:50 10° ESE visible
11 Dec - 21:45:57 10° W 21:53:16 38° SSW 22:05:24 10° SE visible
12 Dec - 00:02:27 10° WSW 00:08:56 16° SSW 00:17:04 10° S night (unlit)
12 Dec - 14:11:21 10° SSW 14:14:01 17° SSE 14:16:37 10° ESE daylight
12 Dec - 16:22:21 10° WSW 16:26:16 62° SSE 16:31:23 10° E daylight
12 Dec - 18:34:21 10° W 18:39:10 76° S 18:47:10 10° ESE visible
12 Dec - 20:46:31 10° W 20:52:54 45° SSW 21:03:49 10° SE visible
12 Dec - 23:00:58 10° WSW 23:07:55 21° SSW 23:17:34 10° SSE night (unlit)
13 Dec - 13:14:06 10° SSE 13:14:35 10° SSE 13:15:04 10° SSE daylight
13 Dec - 15:23:12 10° SW 15:26:59 44° SSE 15:31:08 10° E daylight
13 Dec - 17:35:19 10° W 17:39:34 79° S 17:45:58 10° E daylight
13 Dec - 19:47:20 10° W 19:52:49 53° SSW 20:02:14 10° ESE visible
13 Dec - 22:00:37 10° WSW 22:07:13 26° SSW 22:17:07 10° SSE visible
